[[{"header":{"parameterUnit":"m.s-1","parameterCategory":1,"la1":30.2991,"la2":30.254,"lo1":-89.0895,"lo2":-89.0444,"dy":0.0017,"dx":0.0017,"nx":28,"ny":28,"refTime":"2024-03-27T03:00:00:Z","depth":0,"parameterNumber":2,"parameterNumberName":"U-component_of_WINDS"},"data":[0,0,0,0,0,0,0,0,0,0,0,0,0,0,0,0,0,0,0,0,0,0,0,0,0,0,0,0,0,0,0,0,0,0,0,0,0,0,0,0,0,0,0,0,0,0,0,0,0,0,0,0,0,0,0,0,0,0,0.6704,0.6704,0,0.6643,0.6643,0.6642,0.6616,0.6617,0.6617,0.6617,0.6553,0.6551,0.6549,0,0,0,0,0,0,0,0,0,0,0,0,0,0.6799,0.6797,0.6705,0.6704,0.6703,0.6643,0.6643,0.6642,0.6616,0.6617,0.6617,0.6617,0.6553,0.6551,0.6549,0,0,0,0,0,0,0,0,0,0,0,0,0,0.675,0.6797,0.6705,0.6683,0.6681,0.6644,0.6643,0.6642,0.6616,0.6617,0.6617,0.6617,0.6554,0.6551,0.6549,0.6528,0,0,0.654,0.6539,0,0,0,0,0,0,0,0,0.6752,0.6746,0.6687,0.6685,0.6682,0.6638,0.6652,0.6603,0.6616,0.6641,0.6617,0.6617,0.6581,0.6576,0.6564,0.6525,0.6522,0.654,0.6538,0.6537,0.6536,0,0,0,0,0,0,0,0.6756,0.6749,0.668,0.6686,0.6683,0.6676,0.667,0.6643,0.661,0.6639,0.6637,0.663,0.6579,0.6567,0.6562,0.6521,0.654,0.6538,0.6536,0.6535,0.6463,0.6463,0,0,0,0,0,0,0.6763,0.6752,0.6682,0.6678,0.6718,0.6675,0.6667,0.6652,0.6611,0.6605,0.663,0.6629,0.6571,0.6565,0.656,0.6533,0.6537,0.6535,0.6533,0.6463,0.6463,0.6463,0,0,0,0,0,0,0.6765,0.6757,0.6685,0.6714,0.6705,0.6673,0.6656,0.665,0.6638,0.6604,0.6598,0.6623,0.6571,0.6564,0.6536,0.6531,0.6533,0.6531,0.6464,0.6463,0.6463,0.648,0,0,0,0,0,0,0.6768,0.6758,0.675,0.6715,0.6703,0.6662,0.6655,0.6649,0.6633,0.6631,0.6596,0.659,0.6571,0.6541,0.6534,0.6527,0.6529,0.6464,0.6463,0.6463,0.6479,0.648,0.648,0,0,0,0,0,0.6771,0.6756,0.6749,0.6741,0.6692,0.6662,0.6656,0.6634,0.6633,0.6624,0.6603,0.6591,0.6533,0.6538,0.653,0.6522,0.6464,0.6464,0.6463,0.6479,0.648,0.648,0,0,0,0,0,0,0.679,0.6751,0.6743,0.6716,0.6693,0.6658,0.6646,0.6635,0.6611,0.661,0.6584,0.6577,0.6552,0.6534,0.6541,0.6501,0.6498,0.6495,0.6513,0.6513,0.6513,0.6518,0.6526,0,0,0,0,0,0.6792,0.6771,0.6737,0.6717,0.6706,0.6678,0.6664,0.665,0.6624,0.6614,0.659,0.6566,0.6542,0.6526,0.6503,0.6477,0.6469,0.6468,0.6469,0.6469,0.6467,0.6453,0.6452,0.6461,0.6461,0.6461,0,0,0.6794,0.677,0.6758,0.672,0.67,0.6679,0.667,0.6647,0.6631,0.661,0.6583,0.6565,0.6536,0.651,0.6497,0.6495,0.6463,0.6468,0.6469,0.6467,0.6453,0.6452,0.6451,0.646,0.646,0.6461,0,0,0.6787,0.6766,0.6747,0.6728,0.6699,0.6681,0.6676,0.6643,0.6631,0.6604,0.6588,0.6568,0.6527,0.6507,0.6492,0.6479,0.6468,0.6472,0.6474,0.6461,0.646,0.6459,0.6455,0.6454,0.6471,0.6471,0.6471,0,0.6793,0.676,0.6739,0.6718,0.6702,0.6683,0.6664,0.6646,0.661,0.6599,0.6597,0.6547,0.6526,0.6495,0.6492,0.648,0.6474,0.6476,0.6462,0.6461,0.646,0.6456,0.6454,0.6472,0.6472,0.6471,0.6471,0,0.6769,0.6747,0.6735,0.6702,0.6685,0.6665,0.664,0.6626,0.6614,0.6596,0.6569,0.6543,0.6514,0.6506,0.6493,0.6474,0.6473,0.6467,0.6463,0.6461,0.6456,0.6454,0.6473,0.6472,0.6472,0.6472,0,0,0.6771,0.6727,0.6723,0.6708,0.6675,0.6658,0.6637,0.661,0.6598,0.6574,0.6556,0.6523,0.6517,0.65,0.6485,0.6474,0.6466,0.6469,0.6468,0.6469,0.6443,0.6448,0.6446,0.6458,0.6458,0.6458,0.6446,0,0.6759,0.6721,0.6703,0.6673,0.6653,0.6636,0.6618,0.6596,0.6579,0.6559,0.6541,0.6518,0.6512,0.6502,0.649,0.6469,0.646,0.647,0.6441,0.6441,0.6449,0.6444,0.6448,0.6438,0.6444,0.6443,0.6443,0,0.674,0.6717,0.6686,0.6656,0.6647,0.6631,0.6605,0.6587,0.6561,0.655,0.6532,0.6518,0.6496,0.6495,0.6464,0.6471,0.6459,0.6447,0.6446,0.6442,0.6441,0.6439,0.6434,0.6432,0.644,0.644,0.644,0,0.6744,0.6706,0.6683,0.667,0.6635,0.6625,0.6609,0.6585,0.657,0.6547,0.6537,0.6512,0.6498,0.6479,0.6459,0.646,0.643,0.6427,0.642,0.6421,0.6414,0.6414,0.6406,0.6407,0.6407,0.6407,0.6407,0,0.6732,0.6714,0.6684,0.667,0.6649,0.6628,0.6608,0.6591,0.657,0.6552,0.6535,0.6519,0.6493,0.6474,0.6458,0.6435,0.6429,0.6419,0.6415,0.6421,0.6422,0.6411,0.6411,0.6406,0.6406,0.6407,0.6407,0,0.6733,0.6712,0.6686,0.6655,0.6647,0.6633,0.6607,0.6593,0.6576,0.6554,0.6547,0.6521,0.6498,0.6476,0.6444,0.6433,0.641,0.6405,0.6419,0.6417,0.6411,0.6412,0.6395,0.6392,0.6395,0.6395,0.6395,0,0.6727,0.6712,0.6681,0.6668,0.6653,0.6633,0.6618,0.6597,0.6582,0.6553,0.6542,0.6518,0.6497,0.646,0.6438,0.6414,0.6408,0.6404,0.6404,0.641,0.6408,0.6409,0.6407,0.6404,0.6404,0.6404,0.6404,0,0.6717,0.6708,0.6688,0.6664,0.6647,0.6627,0.6606,0.6597,0.6572,0.6556,0.6532,0.6516,0.6485,0.6461,0.6435,0.6419,0.6407,0.6405,0.6402,0.6407,0.6415,0.6411,0.642,0.6405,0.6405,0.6405,0.6405,0.6405,0.6714,0.6701,0.6677,0.6655,0.6638,0.6619,0.6604,0.6587,0.6566,0.6539,0.6528,0.6504,0.6481,0.6445,0.6429,0.641,0.6408,0.6403,0.6402,0.6401,0.6402,0.6419,0.6405,0.6405,0.6405,0.6405,0.6405,0,0.6704,0.6688,0.6668,0.6641,0.6624,0.6616,0.6593,0.6579,0.6558,0.6537,0.6517,0.6491,0.6468,0.6445,0.642,0.641,0.6404,0.6404,0.6404,0.6401,0.6406,0.6411,0.6409,0.6409,0.6409,0.6409,0.6409,0.6409,0.6697,0.6674,0.6663,0.6632,0.6616,0.6592,0.658,0.6563,0.6547,0.6518,0.6499,0.6484,0.6463,0.6437,0.6416,0.641,0.6402,0.6403,0.6395,0.64,0.64,0.64,0.6405,0.6401,0.6401,0.6392,0.6392,0.6392]},{"header":{"parameterUnit":"m.s-1","parameterCategory":1,"la1":30.2991,"la2":30.254,"lo1":-89.0895,"lo2":-89.0444,"dy":0.0017,"dx":0.0017,"nx":28,"ny":28,"refTime":"2024-03-27T03:00:00:Z","depth":0,"parameterNumber":3,"parameterNumberName":"V-component_of_WINDS"},"data":[0,0,0,0,0,0,0,0,0,0,0,0,0,0,0,0,0,0,0,0,0,0,0,0,0,0,0,0,0,0,0,0,0,0,0,0,0,0,0,0,0,0,0,0,0,0,0,0,0,0,0,0,0,0,0,0,0,0,-6.7683,-6.7685,0,-6.7853,-6.7855,-6.7857,-6.7809,-6.7806,-6.7802,-6.7799,-6.7968,-6.7976,-6.7983,0,0,0,0,0,0,0,0,0,0,0,0,0,-6.7311,-6.7318,-6.7683,-6.7685,-6.7687,-6.7853,-6.7855,-6.7858,-6.781,-6.7806,-6.7802,-6.7798,-6.7966,-6.7975,-6.7984,0,0,0,0,0,0,0,0,0,0,0,0,0,-6.7476,-6.732,-6.7682,-6.7683,-6.7685,-6.7853,-6.7855,-6.7858,-6.7811,-6.7806,-6.78,-6.7796,-6.7963,-6.7974,-6.7985,-6.816,0,0,-6.8021,-6.8026,0,0,0,0,0,0,0,0,-6.7466,-6.7489,-6.7681,-6.7684,-6.7686,-6.7805,-6.7786,-6.7959,-6.7812,-6.7763,-6.7799,-6.7793,-6.7918,-6.7933,-6.7976,-6.8168,-6.8176,-6.8022,-6.8029,-6.8034,-6.8037,0,0,0,0,0,0,0,-6.7455,-6.7482,-6.775,-6.7684,-6.7687,-6.7674,-6.7691,-6.7819,-6.7867,-6.7767,-6.7764,-6.7785,-6.7918,-6.7965,-6.7979,-6.8178,-6.8021,-6.8032,-6.8039,-6.8043,-6.8522,-6.8528,0,0,0,0,0,0,-6.7443,-6.7473,-6.7745,-6.7755,-6.7561,-6.7685,-6.7704,-6.7772,-6.7866,-6.7875,-6.7789,-6.7782,-6.7948,-6.7966,-6.7985,-6.8196,-6.8034,-6.8045,-6.8051,-6.8516,-6.8523,-6.853,0,0,0,0,0,0,-6.7435,-6.7467,-6.7738,-6.7613,-6.7647,-6.7696,-6.7773,-6.7778,-6.7825,-6.7883,-6.789,-6.7829,-6.7944,-6.7969,-6.8118,-6.8201,-6.805,-6.806,-6.851,-6.8518,-6.8526,-6.862,0,0,0,0,0,0,-6.7424,-6.7465,-6.7533,-6.7615,-6.7654,-6.7869,-6.7778,-6.7785,-6.7846,-6.7838,-6.7922,-6.793,-6.7942,-6.8101,-6.8129,-6.8215,-6.8069,-6.8502,-6.8513,-6.8524,-6.861,-6.8631,-6.8649,0,0,0,0,0,-6.7411,-6.7552,-6.7537,-6.757,-6.774,-6.7874,-6.7896,-6.7908,-6.7853,-6.7921,-6.7958,-6.7928,-6.8188,-6.8116,-6.8148,-6.8238,-6.8497,-6.851,-6.8523,-6.8601,-6.8627,-6.8648,0,0,0,0,0,0,-6.7476,-6.7562,-6.7547,-6.7719,-6.779,-6.7866,-6.7953,-6.7935,-6.8022,-6.8011,-6.802,-6.804,-6.8192,-6.823,-6.8148,-6.8412,-6.8334,-6.8354,-6.8382,-6.8407,-6.8427,-6.8414,-6.8079,0,0,0,0,0,-6.7511,-6.7614,-6.7683,-6.7828,-6.7864,-6.7903,-6.7961,-6.7965,-6.8038,-6.8067,-6.8115,-6.8186,-6.8283,-6.8347,-6.844,-6.8615,-6.8632,-6.8692,-6.8712,-6.8728,-6.8745,-6.8839,-6.8867,-6.8572,-6.8572,-6.8572,0,0,-6.7583,-6.7643,-6.7707,-6.7842,-6.7898,-6.8003,-6.7928,-6.8042,-6.812,-6.8084,-6.8228,-6.8265,-6.8345,-6.8507,-6.8581,-6.8543,-6.883,-6.8744,-6.8756,-6.8765,-6.8855,-6.8883,-6.8908,-6.8581,-6.8579,-6.8578,0,0,-6.7768,-6.7824,-6.7951,-6.8008,-6.8094,-6.8118,-6.8149,-6.8228,-6.8252,-6.8397,-6.8372,-6.8464,-6.8632,-6.8689,-6.874,-6.8948,-6.8923,-6.8977,-6.908,-6.9172,-6.9195,-6.9216,-6.9289,-6.9316,-6.8994,-6.8994,-6.8994,0,-6.7846,-6.8006,-6.8018,-6.8135,-6.8195,-6.8168,-6.8296,-6.835,-6.8461,-6.8502,-6.8459,-6.8669,-6.8721,-6.8896,-6.8947,-6.8989,-6.9023,-6.8968,-6.9191,-6.9212,-6.9231,-6.9301,-6.9329,-6.9,-6.9,-6.8999,-6.8998,0,-6.8098,-6.8208,-6.83,-6.841,-6.848,-6.8602,-6.863,-6.8699,-6.8696,-6.8725,-6.8872,-6.8933,-6.9038,-6.9079,-6.9077,-6.9255,-6.9229,-6.9188,-6.911,-6.9265,-6.9331,-6.9358,-6.9009,-6.9007,-6.9005,-6.9004,0,0,-6.8329,-6.8444,-6.8478,-6.8527,-6.862,-6.8704,-6.8824,-6.8929,-6.8987,-6.9064,-6.9164,-6.9307,-6.9271,-6.9329,-6.9332,-6.9413,-6.9573,-6.9363,-6.9365,-6.94,-6.9772,-6.9802,-6.9833,-6.9557,-6.9562,-6.9566,-6.9765,0,-6.8522,-6.8735,-6.8749,-6.8941,-6.9043,-6.9019,-6.9123,-6.919,-6.922,-6.9309,-6.9341,-6.9442,-6.9387,-6.9422,-6.9501,-6.9537,-6.9648,-6.9523,-6.9649,-6.9653,-6.963,-6.9867,-6.99,-7.0084,-6.9791,-6.9795,-6.9799,0,-6.8776,-6.8863,-6.9066,-6.9144,-6.9187,-6.9281,-6.9377,-6.9463,-6.9538,-6.9554,-6.962,-6.9612,-6.9733,-6.965,-6.9816,-6.9731,-6.9783,-6.9809,-6.9816,-6.9828,-6.9735,-6.9886,-7.0143,-7.0171,-6.9839,-6.9836,-6.9833,0,-6.8924,-6.9091,-6.9234,-6.9277,-6.9372,-6.9438,-6.9481,-6.9551,-6.9612,-6.9696,-6.9736,-6.9832,-6.9885,-6.9958,-6.9976,-6.9914,-7.0142,-7.0061,-7.0157,-7.0157,-7.0206,-7.0203,-7.0476,-7.024,-7.024,-7.0239,-7.0239,0,-6.9138,-6.9263,-6.9302,-6.939,-6.9529,-6.9543,-6.968,-6.9717,-6.978,-6.9873,-6.9858,-6.9945,-6.9964,-7.0054,-7.0069,-7.0204,-7.0228,-7.0243,-7.0245,-7.0245,-7.0243,-7.0279,-7.0266,-7.0247,-7.0245,-7.0244,-7.0242,0,-6.9327,-6.9359,-6.9513,-6.9591,-6.9613,-6.9712,-6.9777,-6.9861,-6.9888,-7.0007,-7.0035,-7.0078,-7.0185,-7.021,-7.0336,-7.0345,-7.0505,-7.0495,-7.0481,-7.048,-7.0576,-7.0566,-7.0881,-7.0923,-7.066,-7.0662,-7.0664,0,-6.9462,-6.9558,-6.9646,-6.9709,-6.9754,-6.9855,-6.9919,-6.9935,-7.0002,-7.0094,-7.0167,-7.0272,-7.0356,-7.0527,-7.0568,-7.0664,-7.0656,-7.076,-7.067,-7.0667,-7.0658,-7.0652,-7.0661,-7.0777,-7.078,-7.0782,-7.0784,0,-6.9698,-6.9709,-6.9802,-6.9901,-6.9977,-7.0056,-7.013,-7.0181,-7.0208,-7.0283,-7.0393,-7.0459,-7.0589,-7.0692,-7.0789,-7.083,-7.0812,-7.0812,-7.0839,-7.084,-7.0827,-7.0835,-7.0528,-7.0804,-7.0802,-7.0801,-7.08,-7.0799,-6.9864,-6.9948,-7.0023,-7.0127,-7.0186,-7.0256,-7.0338,-7.0377,-7.0469,-7.0578,-7.0581,-7.07,-7.0772,-7.09,-7.0947,-7.1039,-7.1007,-7.1047,-7.1057,-7.1066,-7.1075,-7.0813,-7.1056,-7.1056,-7.1055,-7.1055,-7.1055,0,-7.0098,-7.0146,-7.0242,-7.0348,-7.0429,-7.0406,-7.0488,-7.0557,-7.0663,-7.0732,-7.0816,-7.0942,-7.1042,-7.1092,-7.1191,-7.1255,-7.1249,-7.1281,-7.1276,-7.1286,-7.1098,-7.1064,-7.1284,-7.1284,-7.1284,-7.1284,-7.1284,-7.1284,-7.023,-7.0372,-7.0392,-7.0561,-7.0607,-7.0725,-7.0774,-7.0838,-7.0893,-7.1035,-7.1119,-7.1151,-7.1212,-7.1316,-7.1407,-7.1418,-7.1456,-7.1492,-7.1499,-7.1323,-7.1299,-7.1277,-7.1245,-7.15,-7.15,-7.1679,-7.1681,-7.1682]}]]